Weather History for Gulfport, MS

Change the Weather History Date:

Tuesday, October 23, 2012

  Actual Average Record
Temperature  
Mean Temperature 70 °F -  
Max Temperature 80 °F 78 °F 88 °F (1953)
Min Temperature 59 °F 58 °F 42 °F (1996)
Cooling Degree Days 4    
Growing Degree Days 20 (Base 50)    
Moisture  
Dew Point 64 °F    
Average Humidity 81    
Maximum Humidity 96    
Minimum Humidity 61    
Precipitation  
Precipitation 0.00 in - - ()
Sea Level Pressure  
Sea Level Pressure 30.05 in    
Wind  
Wind Speed 4 mph (ESE)    
Max Wind Speed 16 mph    
Max Gust Speed -    
Visibility 10 miles    
Events      
Averages and records for this station are not official NWS values.
T = Trace of Precipitation, MM = Missing Value Source: NWS Daily Summary

Daily Weather History Graph

Daily Weather History Graph

Search for Another Location

Airport:

Trip Planner

Search our weather history database for the weather conditions in past years. The results will help you decide how hot, cold, wet, or windy it might be!

Date:

Astronomy

Oct. 23, 2012 Rise Set
Actual Time 7:04 AM CDT 6:16 PM CDT
Civil Twilight 6:39 AM CDT 6:40 PM CDT
Nautical Twilight 6:11 AM CDT 7:08 PM CDT
Astronomical Twilight 5:43 AM CDT 7:36 PM CDT
Moon 2:38 PM CDT (10/23) 1:20 AM CDT (10/23)
Length of Visible Light 12h 00m
Length of Day
11h 11m
Waxing Gibbous, 67% of the Moon is Illuminated
Oct 23
Waxing Gibbous
Oct 29
Full
Nov 6
Last Quarter
Nov 13
New
Nov 20
First Quarter

Hourly Weather History & Observations

Time (CDT) Temp. Heat Index Dew Point Humidity Pressure Visibility Wind Dir Wind Speed Gust Speed Precip Events Conditions
12:53 AM 60.8 °F - 59.0 °F 94% 30.06 in 9.0 mi Calm Calm - N/A   Clear
1:53 AM 61.0 °F - 59.0 °F 93% 30.05 in 10.0 mi Calm Calm - N/A   Clear
2:53 AM 62.1 °F - 60.1 °F 93% 30.04 in 10.0 mi Calm Calm - N/A   Mostly Cloudy
3:53 AM 62.1 °F - 60.1 °F 93% 30.03 in 10.0 mi Calm Calm - N/A   Clear
4:53 AM 60.1 °F - 59.0 °F 96% 30.04 in 10.0 mi Calm Calm - N/A   Clear
5:53 AM 59.0 °F - 57.9 °F 96% 30.06 in 10.0 mi Calm Calm - N/A   Partly Cloudy
6:53 AM 61.0 °F - 59.0 °F 93% 30.06 in 10.0 mi Calm Calm - N/A   Clear
7:53 AM 64.0 °F - 60.1 °F 87% 30.08 in 10.0 mi NE 4.6 mph - N/A   Partly Cloudy
8:53 AM 66.9 °F - 61.0 °F 81% 30.09 in 10.0 mi ENE 6.9 mph - N/A   Clear
9:53 AM 73.0 °F - 63.0 °F 71% 30.09 in 10.0 mi North - - N/A   Clear
10:53 AM 78.1 °F - 64.9 °F 64% 30.09 in 10.0 mi East 8.1 mph - N/A   Clear
11:53 AM 78.8 °F - 64.4 °F 61% 30.08 in 10.0 mi ESE 13.8 mph - N/A   Partly Cloudy
12:53 PM 80.6 °F 82.7 °F 66.2 °F 61% 30.06 in 10.0 mi ESE 16.1 mph - N/A   Partly Cloudy
1:53 PM 80.1 °F 82.3 °F 66.9 °F 64% 30.03 in 10.0 mi ESE 12.7 mph - N/A   Clear
2:53 PM 79.0 °F - 66.9 °F 66% 30.02 in 10.0 mi SE 15.0 mph - N/A   Clear
3:53 PM 77.0 °F - 68.0 °F 74% 30.02 in 10.0 mi SE 15.0 mph - N/A   Clear
4:53 PM 75.9 °F - 69.1 °F 79% 30.02 in 10.0 mi SE 12.7 mph - N/A   Clear
5:53 PM 75.0 °F - 69.1 °F 82% 30.03 in 10.0 mi SE 8.1 mph - N/A   Clear
6:53 PM 73.0 °F - 69.1 °F 87% 30.04 in 10.0 mi SE 8.1 mph - N/A   Partly Cloudy
7:53 PM 73.0 °F - 68.0 °F 84% 30.04 in 10.0 mi SE 9.2 mph - N/A   Clear
8:53 PM 73.0 °F - 66.9 °F 81% 30.05 in 10.0 mi SE 8.1 mph - N/A   Clear
9:53 PM 71.1 °F - 66.0 °F 84% 30.06 in 10.0 mi SE 5.8 mph - N/A   Clear
10:53 PM 71.1 °F - 66.0 °F 84% 30.06 in 10.0 mi ESE 6.9 mph - N/A   Clear
11:53 PM 70.0 °F - 64.9 °F 84% 30.05 in 10.0 mi ESE 4.6 mph - N/A   Clear